Location: Ottawa
(45.4167°N, 75.7000°W)
Time: 02:08:57
(UTC-05:00)

Vanguard 3 - Visible Passes

Search period start: 19 January 2018 00:00
Search period end: 29 January 2018 00:00
Orbit: 508 x 3264 km, 33.4° (Epoch: 18 January)

Date Brightness Start Highest point End Pass type
(mag) Time Alt. Az. Time Alt. Az. Time Alt. Az.
19 Jan 10.8 01:18:58 30° ESE 01:18:58 30° ESE 01:27:46 10° E visible
19 Jan 10.0 03:23:31 56° SSW 03:24:42 57° S 03:43:11 10° ESE visible
19 Jan 10.4 05:28:05 24° WSW 05:40:06 46° SSW 05:55:50 10° SE visible
20 Jan 11.4 00:09:06 13° E 00:09:06 13° E 00:10:38 10° E visible
20 Jan 10.4 02:13:40 46° SE 02:13:40 46° SE 02:27:22 10° E visible
20 Jan 10.1 04:18:13 44° SW 04:23:59 53° SSW 04:41:37 10° SE visible
20 Jan 10.7 06:22:48 11° W 06:38:29 34° SW 06:52:24 10° SSE visible
21 Jan 11.0 01:03:49 26° ESE 01:03:49 26° ESE 01:10:48 10° E visible
21 Jan 10.1 03:08:23 56° S 03:08:23 56° S 03:26:27 10° ESE visible
21 Jan 10.4 05:12:57 28° WSW 05:22:57 44° SSW 05:39:12 10° SE visible
22 Jan 10.5 01:58:34 41° SE 01:58:34 41° SE 02:10:26 10° ESE visible
22 Jan 10.1 04:03:08 47° SW 04:06:51 51° SSW 04:24:53 10° SE visible
22 Jan 10.7 06:07:42 14° W 06:21:19 32° SW 06:35:32 10° SSE visible
23 Jan 11.1 00:48:46 21° ESE 00:48:46 21° ESE 00:53:43 10° E visible
23 Jan 10.1 02:53:20 52° SSE 02:53:20 52° SSE 03:09:33 10° ESE visible
23 Jan 10.4 04:57:54 31° WSW 05:05:46 41° SSW 05:22:22 10° SE visible
24 Jan 10.7 01:43:35 34° ESE 01:43:35 34° ESE 01:53:23 10° ESE visible
24 Jan 10.1 03:48:09 48° SSW 03:49:45 49° SSW 04:07:58 10° SE visible
24 Jan 10.8 05:52:43 16° W 06:04:08 29° SW 06:18:23 10° SSE visible
25 Jan 11.3 00:33:51 16° ESE 00:33:51 16° ESE 00:36:32 10° E visible
25 Jan 10.3 02:38:26 46° SSE 02:38:26 46° SSE 02:52:31 10° ESE visible
25 Jan 10.4 04:43:00 33° WSW 04:48:36 38° SSW 05:05:16 10° SSE visible
25 Jan 11.1 06:51:53 10° W 07:01:55 16° SW 07:11:30 10° SSW visible
26 Jan 10.9 01:28:45 28° ESE 01:28:45 28° ESE 01:36:13 10° ESE visible
26 Jan 10.2 03:33:19 46° SSW 03:33:19 46° SSW 03:50:50 10° SE visible
26 Jan 10.7 05:37:54 18° WSW 05:46:58 26° SW 06:00:55 10° S visible
27 Jan 11.4 00:19:06 10° E 00:19:06 10° E 00:19:17 10° E visible
27 Jan 10.5 02:23:41 38° SE 02:23:41 38° SE 02:35:18 10° ESE visible
27 Jan 10.4 04:28:16 33° SW 04:31:30 35° SSW 04:47:56 10° SSE visible
27 Jan 11.1 06:36:50 10° WSW 06:44:49 14° SW 06:52:43 10° SSW visible
28 Jan 11.1 01:14:04 21° ESE 01:14:04 21° ESE 01:18:56 10° ESE visible
28 Jan 10.3 03:18:39 41° S 03:18:39 41° S 03:33:31 10° SE visible
28 Jan 10.7 05:23:15 19° WSW 05:29:51 23° SW 05:43:04 10° S visible
